Weather History for Joplin, MO

Change the Weather History Date:

Thursday, January 31, 2013

  Actual Average Record
Temperature  
Mean Temperature 25 °F 36 °F  
Max Temperature 37 °F 47 °F 75 °F (1989)
Min Temperature 13 °F 26 °F -4 °F (1979)
Degree Days  
Heating Degree Days 40 29  
Month to date heating degree days 856 925  
Since 1 July heating degree days 2353 2549  
Cooling Degree Days 0 0  
Month to date cooling degree days 1 0  
Year to date cooling degree days 1 0  
Moisture  
Dew Point 17 °F    
Average Humidity 74    
Maximum Humidity 91    
Minimum Humidity 57    
Precipitation  
Precipitation 0.01 in 0.07 in 0.60 in (1981)
Month to date precipitation 2.45 2.03  
Year to date precipitation 2.45 2.03  
Snow  
Snow 0.20 in - - ()
Month to date snowfall 0.2  
Snow Depth 0.00 in    
Sea Level Pressure  
Sea Level Pressure 30.22 in    
Wind  
Wind Speed 10 mph (NW)    
Max Wind Speed 22 mph    
Max Gust Speed 24 mph    
Visibility 8 miles    
Events Snow    
T = Trace of Precipitation, MM = Missing Value Source: NWS Daily Summary

Daily Weather History Graph

Daily Weather History Graph

Search for Another Location

Airport:

Trip Planner

Search our weather history database for the weather conditions in past years. The results will help you decide how hot, cold, wet, or windy it might be!

Date:

Astronomy

Jan. 31, 2013 Rise Set
Actual Time 7:21 AM CST 5:42 PM CST
Civil Twilight 6:53 AM CST 6:09 PM CST
Nautical Twilight 6:22 AM CST 6:40 PM CST
Astronomical Twilight 5:52 AM CST 7:11 PM CST
Moon 10:36 PM CST (1/31) 9:29 AM CST (1/31)
Length of Visible Light 11h 15m
Length of Day
10h 20m
Waning Gibbous, 79% of the Moon is Illuminated
Jan 31
Waning Gibbous
Feb 3
Last Quarter
Feb 10
New
Feb 17
First Quarter
Feb 25
Full

Hourly Weather History & Observations

Time (CST) Temp. Windchill Dew Point Humidity Pressure Visibility Wind Dir Wind Speed Gust Speed Precip Events Conditions
12:53 AM 21.0 °F 13.4 °F 18.0 °F 88% 30.05 in 10.0 mi South 5.8 mph - N/A   Clear
1:53 AM 21.9 °F 12.5 °F 18.0 °F 85% 30.05 in 10.0 mi SSW 8.1 mph - N/A   Clear
2:53 AM 21.0 °F 12.4 °F 17.1 °F 85% 30.03 in 10.0 mi South 6.9 mph - N/A   Clear
3:53 AM 21.9 °F 13.4 °F 18.0 °F 85% 30.03 in 10.0 mi South 6.9 mph - N/A   Clear
4:53 AM 19.9 °F 11.1 °F 17.1 °F 89% 30.04 in 10.0 mi South 6.9 mph - N/A   Clear
5:53 AM 21.9 °F 13.4 °F 18.0 °F 85% 30.02 in 10.0 mi South 6.9 mph - N/A   Clear
6:53 AM 24.1 °F 14.4 °F 19.0 °F 81% 30.02 in 10.0 mi SSW 9.2 mph - N/A   Partly Cloudy
7:53 AM 28.9 °F 20.4 °F 21.9 °F 75% 30.05 in 10.0 mi SW 9.2 mph - N/A   Clear
8:53 AM 32.0 °F 23.0 °F 23.0 °F 69% 30.09 in 10.0 mi WSW 11.5 mph - N/A   Clear
9:53 AM 33.1 °F 26.1 °F 23.0 °F 66% 30.11 in 10.0 mi West 8.1 mph - N/A   Overcast
10:53 AM 35.1 °F 27.9 °F 25.0 °F 67% 30.14 in 10.0 mi WNW 9.2 mph - N/A   Scattered Clouds
11:53 AM 36.0 °F 29.0 °F 25.0 °F 64% 30.18 in 10.0 mi WNW 9.2 mph - N/A   Overcast
12:53 PM 35.1 °F 26.4 °F 23.0 °F 61% 30.22 in 10.0 mi NNW 12.7 mph - N/A   Overcast
2:08 PM 30.2 °F 18.1 °F 21.2 °F 69% 30.22 in 2.0 mi North 18.4 mph 24.2 mph 0.00 in Snow Light Snow
2:25 PM 28.4 °F 15.8 °F 23.0 °F 80% 30.23 in 1.5 mi North 18.4 mph 24.2 mph 0.00 in Snow Light Snow
2:51 PM 26.6 °F 15.2 °F 24.8 °F 93% 30.22 in 1.0 mi North 13.8 mph 23.0 mph 0.00 in Snow Light Snow
2:53 PM 26.1 °F 14.5 °F 24.1 °F 92% 30.26 in 1.0 mi North 13.8 mph 23.0 mph 0.00 in Snow Light Snow
3:13 PM 26.6 °F 13.8 °F 21.2 °F 80% 30.25 in 3.0 mi NNW 17.3 mph - 0.01 in Snow Light Snow
3:40 PM 26.6 °F 13.8 °F 19.4 °F 74% 30.26 in 10.0 mi North 17.3 mph - 0.01 in   Overcast
3:53 PM 26.1 °F 14.0 °F 19.0 °F 75% 30.30 in 10.0 mi North 15.0 mph - 0.01 in   Overcast
4:53 PM 25.0 °F 10.9 °F 12.9 °F 60% 30.32 in 10.0 mi North 19.6 mph 23.0 mph N/A   Partly Cloudy
5:53 PM 23.0 °F 13.1 °F 10.0 °F 58% 30.35 in 10.0 mi NNW 9.2 mph - N/A   Clear
6:53 PM 21.0 °F 10.6 °F 9.0 °F 60% 30.40 in 10.0 mi NW 9.2 mph - N/A   Clear
7:53 PM 19.9 °F 8.6 °F 10.0 °F 65% 30.43 in 10.0 mi NW 10.4 mph - N/A   Clear
8:53 PM 19.0 °F 7.5 °F 8.1 °F 62% 30.47 in 10.0 mi NNW 10.4 mph - N/A   Clear
9:53 PM 17.1 °F 5.0 °F 7.0 °F 65% 30.50 in 10.0 mi NW 10.4 mph - N/A   Clear
10:53 PM 15.1 °F 5.2 °F 5.0 °F 64% 30.50 in 10.0 mi North 6.9 mph - N/A   Clear
11:53 PM 14.0 °F 2.9 °F 5.0 °F 67% 30.51 in 10.0 mi NW 8.1 mph - N/A   Clear